This is the latest recevied weather packets stored in our database for station/object N5SNT-2. If no packets are shown the sender has not sent any weather packets the latest 10 day(s).
| Time | Temp. | Humidity | Pressure | Rain* | Wind** | Luminosity | Snow |
|---|---|---|---|---|---|---|---|
| 1777934243 | 27.22° C | 62% | 1012 hPa | 0 mm | - | 154 W/m² | - |
| 1777933943 | 27.22° C | 63% | 1012 hPa | 0 mm | - | 358 W/m² | - |
| 1777933643 | 26.67° C | 63% | 1012 hPa | 0 mm | - | 238 W/m² | - |
| 1777933344 | 26.67° C | 63% | 1012 hPa | 0 mm | - | 150 W/m² | - |
| 1777933043 | 27.78° C | 61% | 1012 hPa | 0 mm | - | 523 W/m² | - |
| 1777932743 | 26.67° C | 63% | 1012 hPa | 0 mm | - | 570 W/m² | - |
| 1777932443 | 26.67° C | 64% | 1012 hPa | 0 mm | - | 677 W/m² | - |
| 1777932144 | 26.67° C | 62% | 1012 hPa | 0 mm | - | 307 W/m² | - |
| 1777931845 | 26.67° C | 64% | 1012 hPa | 0 mm | - | 309 W/m² | - |
| 1777931545 | 26.67° C | 63% | 1012 hPa | 0 mm | - | 223 W/m² | - |
| 1777931244 | 26.67° C | 64% | 1012 hPa | 0 mm | - | 414 W/m² | - |
| 1777930946 | 26.67° C | 63% | 1012 hPa | 0 mm | - | 280 W/m² | - |
| 1777930643 | 26.11° C | 64% | 1012 hPa | 0 mm | - | 317 W/m² | - |
| 1777930345 | 26.67° C | 64% | 1012 hPa | 0 mm | - | 271 W/m² | - |
| 1777930044 | 26.67° C | 62% | 1012 hPa | 0 mm | - | 397 W/m² | - |
| 1777929743 | 26.67° C | 64% | 1012 hPa | 0 mm | - | 348 W/m² | - |
| 1777929444 | 26.67° C | 64% | 1012 hPa | 0 mm | - | 331 W/m² | - |
| 1777929143 | 26.67° C | 63% | 1013 hPa | 0 mm | - | 159 W/m² | - |
| 1777928843 | 26.67° C | 63% | 1013 hPa | 0 mm | - | 317 W/m² | - |
| 1777928543 | 26.67° C | 63% | 1013 hPa | 0 mm | - | 331 W/m² | - |
| 1777928243 | 26.67° C | 63% | 1013 hPa | 0 mm | - | 251 W/m² | - |
| 1777927945 | 26.67° C | 62% | 1013 hPa | 0 mm | - | 387 W/m² | - |
| 1777927643 | 26.67° C | 61% | 1013 hPa | 0 mm | - | 467 W/m² | - |
| 1777927344 | 26.67° C | 62% | 1013 hPa | 0 mm | - | 446 W/m² | - |
| 1777927043 | 26.67° C | 62% | 1013 hPa | 0 mm | - | 446 W/m² | - |
* Rain latest hour (hover to see other rain measurements)
** Current wind speed in m/s (hover to see current wind gust speed)